User: anonymous   Login
Location: Dover
(39.1580°N, 75.5250°W)
Time: 14:41:24
(UTC-04:00)
Language:

Cosmos 1437 Rocket - Orbit

View from above orbital plane
View from above orbital plane
View from above satellite
View from above satellite

Ground track
Ground track

The orbit data is extracted from the following two-line orbital elements,

1 13771U 83003B   16272.13411208  .00000231  00000-0  12588-4 0  9995
2 13771  81.1550 305.1337 0040800 151.1691 209.1801 15.09505743834251
Epoch (UTC): 28 September 2016 03:13:07
Eccentricity: 0.0040800
inclination: 81.1550°
perigee height: 509 km
apogee height: 566 km
right ascension of ascending node: 305.1337°
argument of perigee: 151.1691°
revolutions per day: 15.09505743
mean anomaly at epoch: 209.1801°
orbit number at epoch: 83425

The dashed part of the orbit path shows where the satellite is in the earth's shadow,  

DLR